| time (UTC) | temp C | wind direction | speed KPH | gust KPH | rain 1hr cm | rain 24hr cm | rain mn cm | humidity % | barometer mb |
| 20260504050523 | 7 | 227 | 0.0 | 4.8 | 0.00 | 0.00 | 0.00 | 61 | 1015.1 |
| 20260504050022 | 7 | 221 | 0.0 | 3.2 | 0.00 | 0.00 | 0.00 | 62 | 1015.1 |
| 20260504045521 | 7 | 360 | 1.6 | 4.8 | 0.00 | 0.00 | 0.00 | 63 | 1015.2 |
| 20260504045023 | 7 | 222 | 0.0 | 3.2 | 0.00 | 0.00 | 0.00 | 63 | 1015.1 |
| 20260504044532 | 7 | 360 | 0.0 | 4.8 | 0.00 | 0.00 | 0.00 | 64 | 1015.1 |
| 20260504044021 | 7 | 360 | 0.0 | 4.8 | 0.00 | 0.00 | 0.00 | 65 | 1015.1 |
| 20260504043520 | 7 | 360 | 0.0 | 1.6 | 0.00 | 0.00 | 0.00 | 64 | 1015.1 |
| 20260504043029 | 7 | 360 | 0.0 | 0.0 | 0.00 | 0.00 | 0.00 | 64 | 1015.1 |
| 20260504042519 | 7 | 223 | 0.0 | 1.6 | 0.00 | 0.00 | 0.00 | 63 | 1015.1 |
| 20260504042021 | 7 | 224 | 0.0 | 1.6 | 0.00 | 0.00 | 0.00 | 63 | 1015.1 |
| 20260504041518 | 7 | 224 | 0.0 | 1.6 | 0.00 | 0.00 | 0.00 | 62 | 1015.2 |
| 20260504041017 | 7 | 224 | 0.0 | 1.6 | 0.00 | 0.00 | 0.00 | 63 | 1015.1 |
| 20260504040517 | 7 | 224 | 0.0 | 0.0 | 0.00 | 0.00 | 0.00 | 64 | 1015.0 |
| 20260504040019 | 7 | 223 | 0.0 | 0.0 | 0.00 | 0.00 | 0.00 | 62 | 1015.0 |
| 20260504035515 | 8 | 224 | 0.0 | 1.6 | 0.00 | 0.00 | 0.00 | 62 | 1014.9 |
| 20260504035015 | 8 | 224 | 0.0 | 6.4 | 0.00 | 0.00 | 0.00 | 61 | 1014.9 |
| 20260504034515 | 8 | 224 | 0.0 | 6.4 | 0.00 | 0.00 | 0.00 | 61 | 1014.9 |
| 20260504034014 | 8 | 228 | 0.0 | 1.6 | 0.00 | 0.00 | 0.00 | 62 | 1014.9 |
| 20260504033514 | 8 | 228 | 0.0 | 1.6 | 0.00 | 0.00 | 0.00 | 61 | 1014.9 |
| 20260504033015 | 8 | 229 | 0.0 | 4.8 | 0.00 | 0.00 | 0.00 | 60 | 1014.9 |
| 20260504032514 | 8 | 229 | 0.0 | 4.8 | 0.00 | 0.00 | 0.00 | 60 | 1014.9 |
| 20260504032015 | 8 | 230 | 0.0 | 4.8 | 0.00 | 0.00 | 0.00 | 59 | 1014.9 |
| 20260504031517 | 8 | 245 | 0.0 | 1.6 | 0.00 | 0.00 | 0.00 | 60 | 1014.8 |
| 20260504031013 | 8 | 245 | 0.0 | 1.6 | 0.00 | 0.00 | 0.00 | 61 | 1014.7 |
| 20260504030513 | 8 | 245 | 0.0 | 1.6 | 0.00 | 0.00 | 0.00 | 60 | 1014.7 |
| 20260504030014 | 8 | 245 | 0.0 | 3.2 | 0.00 | 0.00 | 0.00 | 60 | 1014.7 |
| 20260504025515 | 8 | 246 | 0.0 | 3.2 | 0.00 | 0.00 | 0.00 | 60 | 1014.7 |
| 20260504025014 | 8 | 245 | 0.0 | 3.2 | 0.00 | 0.00 | 0.00 | 60 | 1014.7 |
| 20260504024512 | 8 | 246 | 0.0 | 3.2 | 0.00 | 0.00 | 0.00 | 61 | 1014.8 |
| 20260504024013 | 8 | 245 | 0.0 | 0.0 | 0.00 | 0.00 | 0.00 | 61 | 1014.7 |
| 20260504023513 | 8 | 360 | 0.0 | 1.6 | 0.00 | 0.00 | 0.00 | 61 | 1014.6 |
| 20260504023013 | 8 | 245 | 0.0 | 1.6 | 0.00 | 0.00 | 0.00 | 60 | 1014.6 |
| 20260504022514 | 8 | 246 | 0.0 | 0.0 | 0.00 | 0.00 | 0.00 | 59 | 1014.6 |
| 20260504022013 | 8 | 246 | 0.0 | 3.2 | 0.00 | 0.00 | 0.00 | 58 | 1014.5 |
| 20260504021514 | 8 | 246 | 0.0 | 3.2 | 0.00 | 0.00 | 0.00 | 58 | 1014.6 |
| 20260504021012 | 8 | 246 | 0.0 | 3.2 | 0.00 | 0.00 | 0.00 | 58 | 1014.6 |
| 20260504020512 | 8 | 246 | 0.0 | 3.2 | 0.00 | 0.00 | 0.00 | 59 | 1014.6 |
| 20260504020012 | 8 | 246 | 0.0 | 0.0 | 0.00 | 0.00 | 0.00 | 58 | 1014.7 |
| 20260504015511 | 8 | 246 | 0.0 | 1.6 | 0.00 | 0.00 | 0.00 | 58 | 1014.6 |
| 20260504015011 | 8 | 246 | 0.0 | 1.6 | 0.00 | 0.00 | 0.00 | 57 | 1014.6 |
| 20260504014511 | 8 | 246 | 0.0 | 1.6 | 0.00 | 0.00 | 0.00 | 57 | 1014.6 |
| 20260504014012 | 8 | 246 | 0.0 | 3.2 | 0.00 | 0.00 | 0.00 | 57 | 1014.6 |
| 20260504013513 | 8 | 360 | 0.0 | 1.6 | 0.00 | 0.00 | 0.00 | 56 | 1014.5 |
| 20260504013017 | 8 | 360 | 0.0 | 1.6 | 0.00 | 0.00 | 0.00 | 56 | 1014.5 |
| 20260504012511 | 8 | 360 | 0.0 | 0.0 | 0.00 | 0.00 | 0.00 | 56 | 1014.4 |
| 20260504012010 | 9 | 245 | 0.0 | 0.0 | 0.00 | 0.00 | 0.00 | 55 | 1014.4 |
| 20260504011510 | 9 | 244 | 0.0 | 0.0 | 0.00 | 0.00 | 0.00 | 55 | 1014.3 |
| 20260504011012 | 9 | 243 | 0.0 | 0.0 | 0.00 | 0.00 | 0.00 | 54 | 1014.2 |
| 20260504010510 | 10 | 243 | 0.0 | 0.0 | 0.00 | 0.00 | 0.00 | 55 | 1014.2 |
| 20260504010009 | 10 | 244 | 0.0 | 0.0 | 0.00 | 0.00 | 0.00 | 53 | 1014.3 |
| 20260504005509 | 10 | 243 | 0.0 | 0.0 | 0.00 | 0.00 | 0.00 | 52 | 1014.2 |
| 20260504005009 | 10 | 243 | 0.0 | 0.0 | 0.00 | 0.00 | 0.00 | 52 | 1014.2 |
| 20260504004516 | 10 | 360 | 0.0 | 0.0 | 0.00 | 0.00 | 0.00 | 52 | 1014.2 |
| 20260504004009 | 10 | 360 | 0.0 | 0.0 | 0.00 | 0.00 | 0.00 | 51 | 1014.2 |
| 20260504003508 | 11 | 244 | 0.0 | 0.0 | 0.00 | 0.00 | 0.00 | 50 | 1014.1 |
| 20260504003008 | 11 | 244 | 0.0 | 0.0 | 0.00 | 0.00 | 0.00 | 49 | 1014.0 |
| 20260504002509 | 11 | 244 | 0.0 | 0.0 | 0.00 | 0.00 | 0.00 | 48 | 1014.0 |
| 20260504002009 | 11 | 243 | 0.0 | 0.0 | 0.00 | 0.00 | 0.00 | 47 | 1013.9 |
| 20260504001509 | 12 | 241 | 0.0 | 0.0 | 0.00 | 0.00 | 0.00 | 45 | 1013.9 |
| 20260504001009 | 12 | 240 | 0.0 | 1.6 | 0.00 | 0.00 | 0.00 | 45 | 1013.8 |
| 20260504000508 | 12 | 242 | 0.0 | 1.6 | 0.00 | 0.00 | 0.00 | 43 | 1013.7 |
| 20260504000008 | 12 | 242 | 0.0 | 1.6 | 0.00 | 0.00 | 0.00 | 44 | 1013.7 |
| 20260503235507 | 13 | 242 | 0.0 | 1.6 | 0.00 | 0.00 | 0.00 | 41 | 1013.7 |
| 20260503235007 | 13 | 242 | 0.0 | 1.6 | 0.00 | 0.00 | 0.00 | 40 | 1013.6 |
| 20260503234513 | 13 | 240 | 0.0 | 1.6 | 0.00 | 0.00 | 0.00 | 40 | 1013.5 |
| 20260503234007 | 13 | 241 | 0.0 | 3.2 | 0.00 | 0.00 | 0.00 | 39 | 1013.5 |
| 20260503233508 | 13 | 240 | 0.0 | 4.8 | 0.00 | 0.00 | 0.00 | 40 | 1013.4 |
| 20260503233008 | 13 | 246 | 0.0 | 4.8 | 0.00 | 0.00 | 0.00 | 39 | 1013.3 |
| 20260503232507 | 13 | 248 | 0.0 | 4.8 | 0.00 | 0.00 | 0.00 | 36 | 1013.3 |
| 20260503232007 | 14 | 249 | 1.6 | 4.8 | 0.00 | 0.00 | 0.00 | 36 | 1013.3 |
| 20260503231507 | 14 | 248 | 1.6 | 4.8 | 0.00 | 0.00 | 0.00 | 37 | 1013.3 |
| 20260503231007 | 14 | 244 | 0.0 | 4.8 | 0.00 | 0.00 | 0.00 | 38 | 1013.3 |
| 20260503230507 | 14 | 245 | 0.0 | 4.8 | 0.00 | 0.00 | 0.00 | 38 | 1013.3 |
| 20260503230006 | 14 | 248 | 0.0 | 4.8 | 0.00 | 0.00 | 0.00 | 37 | 1013.3 |
| 20260503225506 | 15 | 237 | 0.0 | 4.8 | 0.00 | 0.00 | 0.00 | 36 | 1013.3 |
| 20260503225007 | 15 | 238 | 0.0 | 3.2 | 0.00 | 0.00 | 0.00 | 35 | 1013.4 |
| 20260503224506 | 15 | 238 | 0.0 | 4.8 | 0.00 | 0.00 | 0.00 | 36 | 1013.4 |
| 20260503224006 | 15 | 238 | 0.0 | 8.0 | 0.00 | 0.00 | 0.00 | 35 | 1013.3 |
| 20260503223506 | 15 | 234 | 1.6 | 8.0 | 0.00 | 0.00 | 0.00 | 36 | 1013.4 |
| 20260503223005 | 15 | 273 | 1.6 | 6.4 | 0.00 | 0.00 | 0.00 | 36 | 1013.3 |
| 20260503222505 | 15 | 225 | 1.6 | 9.7 | 0.00 | 0.00 | 0.00 | 35 | 1013.3 |
| 20260503222005 | 15 | 275 | 1.6 | 9.7 | 0.00 | 0.00 | 0.00 | 36 | 1013.3 |
| 20260503221506 | 15 | 231 | 1.6 | 9.7 | 0.00 | 0.00 | 0.00 | 36 | 1013.4 |
| 20260503221005 | 15 | 270 | 3.2 | 9.7 | 0.00 | 0.00 | 0.00 | 35 | 1013.3 |
| 20260503220509 | 15 | 232 | 1.6 | 8.0 | 0.00 | 0.00 | 0.00 | 36 | 1013.3 |
| 20260503220004 | 15 | 211 | 0.0 | 4.8 | 0.00 | 0.00 | 0.00 | 34 | 1013.4 |
| 20260503215504 | 15 | 208 | 1.6 | 4.8 | 0.00 | 0.00 | 0.00 | 36 | 1013.4 |
| 20260503215003 | 15 | 207 | 0.0 | 11.3 | 0.00 | 0.00 | 0.00 | 36 | 1013.5 |
| 20260503214515 | 15 | 241 | 3.2 | 11.3 | 0.00 | 0.00 | 0.00 | 35 | 1013.5 |
| 20260503214006 | 15 | 244 | 1.6 | 11.3 | 0.00 | 0.00 | 0.00 | 37 | 1013.4 |
| 20260503213503 | 15 | 182 | 3.2 | 11.3 | 0.00 | 0.00 | 0.00 | 35 | 1013.3 |
| 20260503213005 | 15 | 257 | 1.6 | 9.7 | 0.00 | 0.00 | 0.00 | 34 | 1013.4 |
| 20260503212506 | 15 | 307 | 1.6 | 9.7 | 0.00 | 0.00 | 0.00 | 34 | 1013.4 |
| 20260503212004 | 15 | 232 | 0.0 | 6.4 | 0.00 | 0.00 | 0.00 | 35 | 1013.3 |
| 20260503211504 | 15 | 268 | 3.2 | 14.5 | 0.00 | 0.00 | 0.00 | 34 | 1013.3 |
| 20260503211003 | 15 | 254 | 4.8 | 14.5 | 0.00 | 0.00 | 0.00 | 35 | 1013.3 |
| 20260503210503 | 15 | 360 | 1.6 | 9.7 | 0.00 | 0.00 | 0.00 | 36 | 1013.3 |
| 20260503210002 | 15 | 360 | 1.6 | 11.3 | 0.00 | 0.00 | 0.00 | 38 | 1013.3 |
| 20260503205504 | 15 | 360 | 1.6 | 8.0 | 0.00 | 0.00 | 0.00 | 38 | 1013.4 |
| 20260503205002 | 15 | 360 | 1.6 | 9.7 | 0.00 | 0.00 | 0.00 | 36 | 1013.4 |
| 20260503204502 | 15 | 272 | 1.6 | 9.7 | 0.00 | 0.00 | 0.00 | 39 | 1013.4 |
| 20260503204002 | 15 | 317 | 1.6 | 6.4 | 0.00 | 0.00 | 0.00 | 39 | 1013.3 |
| 20260503203502 | 15 | 56 | 1.6 | 9.7 | 0.00 | 0.00 | 0.00 | 37 | 1013.3 |
| 20260503203004 | 15 | 360 | 1.6 | 11.3 | 0.00 | 0.00 | 0.00 | 34 | 1013.4 |
| 20260503202502 | 15 | 13 | 3.2 | 12.9 | 0.00 | 0.00 | 0.00 | 34 | 1013.4 |
| 20260503202002 | 15 | 102 | 1.6 | 12.9 | 0.00 | 0.00 | 0.00 | 36 | 1013.5 |
| 20260503201502 | 15 | 46 | 1.6 | 12.9 | 0.00 | 0.00 | 0.00 | 36 | 1013.5 |
| 20260503201004 | 15 | 130 | 3.2 | 14.5 | 0.00 | 0.00 | 0.00 | 35 | 1013.4 |
| 20260503200502 | 15 | 33 | 3.2 | 12.9 | 0.00 | 0.00 | 0.00 | 36 | 1013.5 |
| 20260503200001 | 15 | 277 | 3.2 | 20.9 | 0.00 | 0.00 | 0.00 | 34 | 1013.7 |
| 20260503195500 | 15 | 30 | 6.4 | 20.9 | 0.00 | 0.00 | 0.00 | 33 | 1013.7 |
| 20260503195101 | 15 | 360 | 1.6 | 8.0 | 0.00 | 0.00 | 0.00 | 33 | 1013.8 |
| 20260503194605 | 16 | 280 | 3.2 | 11.3 | 0.00 | 0.00 | 0.00 | 33 | 1013.9 |
| 20260503194100 | 16 | 24 | 3.2 | 11.3 | 0.00 | 0.00 | 0.00 | 35 | 1013.9 |
| 20260503193600 | 16 | 283 | 3.2 | 8.0 | 0.00 | 0.00 | 0.00 | 38 | 1014.1 |
| 20260503193105 | 16 | 180 | 1.6 | 8.0 | 0.00 | 0.00 | 0.00 | 35 | 1014.2 |
| 20260503192558 | 16 | 360 | 1.6 | 9.7 | 0.00 | 0.00 | 0.00 | 38 | 1014.1 |
| 20260503192058 | 15 | 360 | 0.0 | 11.3 | 0.00 | 0.00 | 0.00 | 33 | 1014.2 |
| 20260503191606 | 15 | 360 | 3.2 | 16.1 | 0.00 | 0.00 | 0.00 | 38 | 1014.3 |
| 20260503191057 | 15 | 360 | 1.6 | 16.1 | 0.00 | 0.00 | 0.00 | 39 | 1014.3 |
| 20260503190557 | 14 | 360 | 3.2 | 9.7 | 0.00 | 0.00 | 0.00 | 37 | 1014.3 |
| 20260503185556 | 14 | 360 | 4.8 | 12.9 | 0.00 | 0.00 | 0.00 | 34 | 1014.5 |
| 20260503185056 | 14 | 360 | 1.6 | 12.9 | 0.00 | 0.00 | 0.00 | 33 | 1014.6 |
| 20260503184618 | 15 | 360 | 3.2 | 12.9 | 0.00 | 0.00 | 0.00 | 37 | 1014.4 |
| 20260503184056 | 15 | 360 | 3.2 | 9.7 | 0.00 | 0.00 | 0.00 | 33 | 1014.6 |
| 20260503183556 | 15 | 360 | 3.2 | 11.3 | 0.00 | 0.00 | 0.00 | 34 | 1014.7 |
| 20260503183100 | 15 | 360 | 1.6 | 11.3 | 0.00 | 0.00 | 0.00 | 39 | 1014.6 |
| 20260503182555 | 15 | 360 | 3.2 | 12.9 | 0.00 | 0.00 | 0.00 | 37 | 1014.9 |
| 20260503182055 | 15 | 35 | 4.8 | 12.9 | 0.00 | 0.00 | 0.00 | 41 | 1014.8 |
| 20260503181612 | 15 | 47 | 3.2 | 12.9 | 0.00 | 0.00 | 0.00 | 43 | 1014.8 |
| 20260503181057 | 14 | 360 | 1.6 | 11.3 | 0.00 | 0.00 | 0.00 | 43 | 1014.8 |
| 20260503180554 | 14 | 232 | 3.2 | 9.7 | 0.00 | 0.00 | 0.00 | 40 | 1014.9 |
| 20260503180112 | 15 | 261 | 3.2 | 8.0 | 0.00 | 0.00 | 0.00 | 41 | 1014.9 |
| 20260503175551 | 14 | 267 | 1.6 | 9.7 | 0.00 | 0.00 | 0.00 | 40 | 1014.8 |
| 20260503175051 | 14 | 252 | 1.6 | 11.3 | 0.00 | 0.00 | 0.00 | 40 | 1014.9 |
| 20260503174557 | 13 | 344 | 3.2 | 8.0 | 0.00 | 0.00 | 0.00 | 38 | 1014.9 |
| 20260503174050 | 14 | 54 | 3.2 | 11.3 | 0.00 | 0.00 | 0.00 | 45 | 1014.9 |
| 20260503173549 | 13 | 239 | 4.8 | 11.3 | 0.00 | 0.00 | 0.00 | 45 | 1015.0 |
| 20260503173100 | 13 | 360 | 1.6 | 8.0 | 0.00 | 0.00 | 0.00 | 41 | 1015.1 |
| 20260503172551 | 13 | 282 | 1.6 | 8.0 | 0.00 | 0.00 | 0.00 | 38 | 1015.2 |
| 20260503172049 | 13 | 271 | 1.6 | 12.9 | 0.00 | 0.00 | 0.00 | 38 | 1015.2 |
| 20260503171549 | 12 | 257 | 3.2 | 12.9 | 0.00 | 0.00 | 0.00 | 44 | 1015.2 |
| 20260503171048 | 13 | 45 | 4.8 | 19.3 | 0.00 | 0.00 | 0.00 | 44 | 1015.3 |
| 20260503170548 | 13 | 30 | 4.8 | 30.6 | 0.00 | 0.00 | 0.00 | 43 | 1015.3 |
| 20260503150540 | 11 | 26 | 8.0 | 14.5 | 0.00 | 0.00 | 0.00 | 41 | 1016.0 |
| 20260503131027 | 8 | 30 | 4.8 | 8.0 | 0.00 | 0.00 | 0.00 | 52 | 1016.3 |
| 20260503130527 | 8 | 32 | 1.6 | 9.7 | 0.00 | 0.00 | 0.00 | 55 | 1016.3 |
| 20260503110510 | 3 | 203 | 0.0 | 3.2 | 0.00 | 0.00 | 0.00 | 72 | 1015.5 |
| 20260503100114 | 3 | 360 | 0.0 | 1.6 | 0.00 | 0.00 | 0.00 | 72 | 1014.4 |
| 20260503081544 | 6 | 360 | 0.0 | 1.6 | 0.00 | 0.00 | 0.00 | 64 | 1013.3 |
| 20260503081045 | 6 | 360 | 0.0 | 3.2 | 0.00 | 0.00 | 0.00 | 64 | 1013.4 |
| 20260503080545 | 6 | 360 | 0.0 | 3.2 | 0.00 | 0.00 | 0.00 | 63 | 1013.4 |
| 20260503072543 | 5 | 360 | 0.0 | 3.2 | 0.00 | 0.00 | 0.00 | 70 | 1013.0 |
| 20260503072041 | 5 | 360 | 0.0 | 3.2 | 0.00 | 0.00 | 0.00 | 71 | 1013.1 |
| 20260503071544 | 5 | 360 | 0.0 | 1.6 | 0.00 | 0.00 | 0.00 | 72 | 1013.1 |
| 20260503071045 | 5 | 360 | 0.0 | 3.2 | 0.00 | 0.00 | 0.00 | 72 | 1013.0 |
| 20260503070541 | 5 | 360 | 0.0 | 3.2 | 0.00 | 0.00 | 0.00 | 73 | 1013.0 |